DMSP 5D-2 F11 DEB, 28326

Orbit data source: Space-Track

DMSP 5D-2 F11 DEB, 28326 is space debris in SSO originally from a launch on Thu, 28 Nov 1991 UTC launched from the Air Force Western Test Range (AFWTR). Debris objects in space refer to the collection of defunct objects orbiting the Earth. Examples of debris include non-operational satellites, rocket bodies, and fragments generated from explosions, collisions, or faulty payload assembly.

Loading next visibility...
Identifier
28326, 1991-082AP
Orbit
SSO
Last TLE update
1 day ago
Origin
Manufacturer
Unknown
Mission
Spacecraft
Bus & Motor
Unknown
Mass
Unknown
Launch date (UTC)
1991-11-28 (34 years ago)
Launch vehicle
Unknown
Launch site
Air Force Western Test Range (AFWTR)
Object type
Payload
Rocket body
Debris
Shape & HBR
Unknown
Radar Cross Section
Small (<0.1 m²)

Expand to show TLE details & history

TLE from 1 day ago
0 DMSP 5D-2 F11 DEB
1 28326U 91082AP  25210.20159165  .00006223  00000-0  19195-2 0  9990
2 28326  98.8172 300.1689 0047805 248.0267 111.5836 14.41090845 96408
Epoch: 2025-07-29T04:50Z
TLE epoch observation values (Epoch: 2025-07-29T04:50:17.518Z)
Latitude
-0.00011°
Longitude
-79.50264°
Altitude
770.523 km
Speed
7.462 km/s
True Right ascension
20h 00m 40s
True Declination
0° 00' 00"
Sunlit
Object was in full shadow at epoch
Visualization orbit readout
Latitude
-53.09184°
Longitude
89.97785°
Altitude
741.881 km
Speed
7.5 km/s
Apparent Right ascension
10h 39m 16s
Apparent Declination
-56° 48' 09"
Sunlit
Object is in daylight
Visualization observer readout
Local Sidereal Time
01:28:02
Azimuth
136.054° SSE
Elevation
-58.004°
Doppler factor
1
Orbital elements
Apogee altitude
786.118 km
Perigee altitude
717.946 km
Semi-major axis
7,130.169 km
Eccentricity
0.00478
Inclination
98.8172°
RAAN
300.1689°
Arg. of periapsis
248.0267°
True anomaly
112.09187°
Mean anomaly
111.5836°
Eccentric anomaly
111.83785°
Mean motion
3.6049 °/min
Orbital period
99.86 mins
BSTAR
0.0019195
Loading maneuver chart data...
Loading SW <> Apogee altitude chart data...
|